Location: ????????
(54.6123°N, 39.2099°E)
Time: 04:16:00
(UTC+00:00)

Cosmos 921 Rocket - Pass Details

Date: 19 May 2025
Orbit: 564 x 622 km, 75.8° (Epoch: 15 June)

Event Time Altitude Azimuth Distance (km) Brightness Sun altitude
Exits shadow 22:57:54 12° 162° (SSE) 1,756 4.9 -12.5°
Maximum altitude 23:01:15 31° 102° (ESE) 1,008 4.3 -12.3°
Drops below altitude 10° 23:04:57 10° 40° (NE) 1,888 6.9 -12.1°
Sets 23:07:20 0° 30° (NNE) 2,799 8.6 -11.9°
